Regional Weather Roundup
Issued by NWS

Home | Current Version | Previous Version | Text Only | Print | Product List | Glossary Off
Versions: 1 2 3 4 5 6 7 8 9 10 11 12 13 14 15 16 17 18 19 20 21 22 23 24 25 26 27 28 29 30 31 32 33 34 35 36 37 38 39 40 41 42 43 44 45 46 47 48 49 50

000
ASUS43 KMPX 250801
RWRMN
WEATHER ROUNDUP FOR MINNESOTA
NATIONAL WEATHER SERVICE TWIN CITIES/CHANHASSEN MN
200 AM CST THU DEC 25 2014


NOTE: "FAIR" INDICATES FEW OR NO CLOUDS BELOW 12,000 FEET WITH NO
SIGNIFICANT WEATHER AND/OR OBSTRUCTIONS TO VISIBILITY. N/A MEANS
CURRENT SKY AND/OR WEATHER CONDITIONS ARE NOT AVAILABLE.

MNZ060>063-068>070-250900-
   Twin Cities Metro

CITY           SKY/WX    TMP DP  RH WIND       PRES   REMARKS
TWIN CITIES    CLOUDY    30  26  85 SW9       29.61R WCI  22
ST PAUL        CLOUDY    31  28  89 SW10      29.62R WCI  22
CRYSTAL        CLOUDY    32  28  85 SW14      29.59R WCI  22
BLAINE         CLOUDY    34  30  86 SW9       29.59R WCI  26
LAKEVILLE      CLOUDY    28  27  93 SW6       29.61S WCI  22
EDEN PRAIRIE   CLOUDY    30  27  88 SW7       29.59S WCI  23
SOUTH ST PAUL  CLOUDY    32  28  86 SW9       29.61R WCI  24
LAKE ELMO      CLOUDY    32  30  93 SW9       29.61R WCI  24
$$
MNZ001>005-007-008-013>017-022>024-027-028-250900-
   Northwest Minnesota

CITY           SKY/WX    TMP DP  RH WIND       PRES   REMARKS
BEMIDJI        CLOUDY    29  25  87 SW7       29.44S WCI  22
HALLOCK        CLOUDY    30  27  86 W8        29.43R WCI  23
ROSEAU         CLOUDY    30  25  80 SW7       29.41S WCI  23
WARROAD        CLOUDY    28  25  86 SW6       29.41S FOG     WCI  22
THIEF RVR FALL CLOUDY    28  27  93 SW8       29.44R WCI  20
CROOKSTON      CLOUDY    30  28  93 W8        29.47R WCI  23
FOSSTON        CLOUDY    27  27 100 SW10      29.46R WCI  17
DETROIT LAKES  CLOUDY    30  28  93 SW9       29.49R WCI  22
MOORHEAD       CLOUDY    30  30 100 S7        29.50S WCI  23
PARK RAPIDS    CLOUDY    30  26  85 SW13      29.47R WCI  20
MAHNOMEN       CLOUDY    28  27  94 SW13      29.46R WCI  18
$$
MNZ006-009>011-018-025>026-250900-
   North Central Minnesota

CITY           SKY/WX    TMP DP  RH WIND       PRES   REMARKS
BAUDETTE       CLOUDY    29  25  85 SW10      29.41S WCI  20
FLAG ISLAND    CLOUDY    28  27  93 SW8       29.40R FOG     WCI  20
INTL FALLS     CLOUDY    30  27  88 SW9       29.43R WCI  22
WASKISH        CLOUDY    30  27  86 SW7       29.44S WCI  23
BIG FORK       CLOUDY    30  27  86 SW10G17   29.45R WCI  21
LONGVILLE      CLOUDY    30  27  86 SW8       29.46S WCI  23
GRAND RAPIDS   CLOUDY    30  27  86 SW7       29.47R WCI  23
CRANE LAKE     CLOUDY    28  28 100 CALM      29.46R
ORR            CLOUDY    30  27  86 CALM      29.42R
COOK           CLOUDY    30  28  93 S6        29.45R WCI  24
WALKER         CLOUDY    29  25  85 SW10      29.45F WCI  19
$$
MNZ012-019>021-037-250900-
   Northeast Minnesota

CITY           SKY/WX    TMP DP  RH WIND       PRES   REMARKS
DULUTH         CLOUDY    32  27  81 SW13      29.48R WCI  22
ELY            CLOUDY    30  28  93 SW6       29.44R WCI  24
HIBBING        CLOUDY    32  27  81 SW7       29.46R WCI  26
EVELETH        CLOUDY    32  30  93 SW9       29.47S WCI  24
DULUTH HARBOR  CLOUDY    34  30  86 SW13      29.53R WCI  25
TWO HARBORS    CLOUDY    36  30  80 SW6       29.48R
SILVER BAY     CLOUDY    34  30  86 CALM      29.46R
GRAND MARAIS     N/A     32  30  92 W3        29.48R
G MARAIS ARPRT LGT SNOW  27  23  86 CALM      29.43R
$$
MNZ029>031-032-039>041-046>048-054>057-064-250900-
   West Central Minnesota

CITY           SKY/WX    TMP DP  RH WIND       PRES   REMARKS
FERGUS FALLS   CLOUDY    28  28 100 SW9       29.54S FOG     WCI  20
WHEATON        FLURRIES  28  27  93 S5        29.54S WCI  23
MORRIS         CLOUDY    28  27  93 S9        29.53S FOG     WCI  20
ALEXANDRIA     CLOUDY    28  25  88 SW10      29.53R WCI  19
ELBOW LAKE     LGT SNOW  28  27  98 S13       29.52S WCI  17
WADENA         FLURRIES  28  27  93 SW10      29.49S WCI  19
GLENWOOD       CLOUDY    28  27  93 S13       29.54R WCI  18
APPLETON       CLOUDY    30  27  86 S5        29.55R WCI  25
BENSON         CLOUDY    28  27  93 SW9       29.55R WCI  20
ORTONVILLE     CLOUDY    28  25  86 CALM      29.54R
MADISON          N/A     32  30  93 SE6       29.53F WCI  26
WILLMAR        FAIR      30  27  86 CALM      29.57R
$$
MNZ033>034-036-042>043-049>051-058-059-250900-
   Central Minnesota

CITY           SKY/WX    TMP DP  RH WIND       PRES   REMARKS
ST CLOUD       CLOUDY    32  26  78 SW12      29.56R WCI  23
SAUK CENTRE    CLOUDY    28  27  93 S9        29.54R WCI  20
PAYNESVILLE    CLOUDY    27  26  96 SE8       29.56R WCI  18
AITKIN         CLOUDY    34  27  75 S6        29.49R WCI  29
PINE RIVER     CLOUDY    30  27  86 S8        29.52F WCI  23
BRAINERD       CLOUDY    30  27  88 SW16      29.51R WCI  19
STAPLES        FLURRIES  28  27  93 SW8       29.51R WCI  20
LONG PRAIRIE   CLOUDY    28  27  93 W8        29.53R WCI  20
LITTLE FALLS   CLOUDY    30  27  86 SW9G17    29.55R WCI  22
LITCHFIELD     CLOUDY    30  28  93 CALM      29.58R
BUFFALO        CLOUDY    30  27  88 S6        29.59S WCI  24
MAPLE LAKE     CLOUDY    31  29  92 S5        29.58S WCI  26
$$
MNZ037-044-045-052-053-250900-
   East Central Minnesota

CITY           SKY/WX    TMP DP  RH WIND       PRES   REMARKS
PRINCETON      CLOUDY    32  28  86 S9        29.57R WCI  24
MORA           CLOUDY    32  28  86 SW7       29.56S WCI  26
CAMBRIDGE      CLOUDY    34  27  75 S7        29.55S WCI  28
RUSH CITY      CLOUDY    31  29  92 SW6       29.57R WCI  25
MOOSE LAKE     CLOUDY    32  28  86 SW8       29.51R WCI  25
HINCKLEY       CLOUDY    32  30  93 SW12      29.55S WCI  23
CLOQUET        CLOUDY    30  27  86 SW10      29.50R WCI  21
MCGREGOR       CLOUDY    32  28  86 S9        29.50S WCI  24
$$
MNZ071>073-080-081-089-090-097-098-250900-
   Southwest Minnesota

CITY           SKY/WX    TMP DP  RH WIND       PRES   REMARKS
MONTEVIDEO     CLOUDY    28  28 100 SW6       29.57R WCI  22
GRANITE FALLS  CLOUDY    29  27  90 S12       29.57R WCI  19
CANBY          CLOUDY    30  26  85 SW12      29.54R WCI  21
MARSHALL       MOCLDY    28  23  80 S10G20    29.55R WCI  19
REDWOOD FALLS  MOCLDY    29  26  89 S13       29.57S WCI  19
OLIVIA         CLOUDY    28  27  93 S8        29.57R WCI  20
PIPESTONE      CLOUDY    27  27 100 S10       29.53S FOG     WCI  17
WINDOM         CLOUDY    27  27 100 S15       29.57S WCI  15
WORTHINGTON    CLOUDY    27 -20  12 S14       29.57S WCI  15
JACKSON        CLOUDY    28  27  93 S14       29.59F WCI  17
TRACY          MOCLDY    29  27  94 SW20      29.53S WCI  16
SLAYTON        CLOUDY    27  27  99 S14       29.56R FOG     WCI  16
$$
MNZ065>067-074>077-082>085-091>093-250900-
   South Central Minnesota

CITY           SKY/WX    TMP DP  RH WIND       PRES   REMARKS
MANKATO        CLOUDY    28  23  80 SW10      29.61F WCI  19
NEW ULM        MOCLDY    28  27  93 S9        29.60S WCI  20
ST JAMES       CLOUDY    28  27  93 S14       29.62R FOG     WCI  17
FAIRMONT       CLOUDY    28  23  80 SW15      29.62R WCI  17
GLENCOE        CLOUDY    30  29  95 S12       29.59R WCI  21
FARIBAULT      CLOUDY    28  27  93 S9G18     29.62S WCI  20
OWATONNA       CLOUDY    28  27  93 SW15G21   29.63R WCI  17
ALBERT LEA     CLOUDY    27  27 100 SW7       29.64R FOG     WCI  19
$$
MNZ078>079-086>088-094>096-250900-
   Southeast Minnesota

CITY           SKY/WX    TMP DP  RH WIND       PRES   REMARKS
ROCHESTER      CLOUDY    28  26  92 SW15      29.64R WCI  16
RED WING       CLOUDY    34  28  80 SW10      29.62R WCI  26
STANTON        CLOUDY    31  28  88 SW14      29.61S WCI  21
DODGE CENTER   CLOUDY    28  28 100 SW15      29.63R WCI  17
WINONA         CLOUDY    34  30  86 W5        29.66R WCI  30
AUSTIN         CLOUDY    27  27 100 SW12      29.66R WCI  16
PRESTON        CLOUDY    28  26  94 W10       29.65R WCI  18
$$
ABBREVIATIONS USED IN REMARKS
   TC - TEMPERATURES IN CELSIUS
  WCI - WIND CHILL INDEX
   HX - HEAT INDEX
  VSB - VISIBILITY
$$


USA.gov is the U.S. government's official web portal to all federal, state and local government web resources and services.